FW8091 Weather Reports


Display with metric or nautical units.
time (UTC)temp
F
wind
direction
speed
MPH
gust
MPH
rain 1hr
in
rain 24hr
in
rain mn
in
humidity
%
barometer
mb
20260510194508 68 202 4.0 12.0 0.00 0.00 0.00 49 1014.3
20260510193007 68 208 6.0 10.0 0.00 0.00 0.00 49 1014.3
20260510191507 69 263 4.0 12.0 0.00 0.00 0.00 48 1014.3
20260510190006 69 204 8.0 16.0 0.00 0.00 0.00 47 1014.1
20260510184504 69 205 7.0 14.0 0.00 0.00 0.00 47 1014.2
20260510183004 70 201 8.0 21.0 0.00 0.00 0.00 45 1014.2
20260510181504 71 216 10.0 21.0 0.00 0.00 0.00 44 1014.0
20260510180003 71 216 10.0 19.0 0.00 0.00 0.00 44 1013.9
20260510174600 71 193 13.0 25.0 0.00 0.00 0.00 43 1013.8
20260510173100 71 199 15.0 24.0 0.00 0.00 0.00 41 1013.8
20260510171604 72 228 17.0 26.0 0.00 0.00 0.00 39 1014.0
20260510170116 73 236 14.0 22.0 0.00 0.00 0.00 38 1013.9
20260510164601 73 213 12.0 20.0 0.00 0.00 0.00 38 1014.0
20260510163056 73 200 12.0 30.0 0.00 0.00 0.00 38 1013.9
20260510161555 73 206 18.0 25.0 0.00 0.00 0.00 38 1014.0
20260510160100 74 198 15.0 28.0 0.00 0.00 0.00 37 1013.9
20260510154537 74 214 9.0 24.0 0.00 0.00 0.00 38 1014.0
20260510153033 73 220 14.0 22.0 0.00 0.00 0.00 39 1014.1
20260510151531 74 209 12.0 29.0 0.00 0.00 0.00 37 1014.4
20260510150017 74 211 16.0 25.0 0.00 0.00 0.00 37 1014.5
20260510144522 74 205 16.0 25.0 0.00 0.00 0.00 36 1014.5
20260510143016 74 232 14.0 26.0 0.00 0.00 0.00 36 1014.7
20260510141514 74 174 15.0 24.0 0.00 0.00 0.00 37 1014.8
20260510140045 74 186 18.0 25.0 0.00 0.00 0.00 36 1014.9
20260510134542 74 216 13.0 30.0 0.00 0.00 0.00 38 1015.1
20260510133039 74 169 15.0 28.0 0.00 0.00 0.00 39 1015.2
20260510131537 74 187 13.0 23.0 0.00 0.00 0.00 39 1015.3
20260510130036 74 159 14.0 27.0 0.00 0.00 0.00 39 1015.5
20260510124555 74 207 16.0 25.0 0.00 0.00 0.00 40 1015.7
20260510123029 73 223 13.0 25.0 0.00 0.00 0.00 43 1016.0
20260510121527 72 226 15.0 24.0 0.00 0.00 0.00 45 1016.1
20260510120031 72 213 15.0 27.0 0.00 0.00 0.00 47 1016.2
20260510114520 69 144 12.0 17.0 0.00 0.01 0.00 57 1016.4
20260510113056 68 119 8.0 12.0 0.00 0.01 0.00 60 1016.6
20260510111602 67 156 8.0 13.0 0.00 0.01 0.00 62 1017.0
20260510110040 66 135 9.0 15.0 0.00 0.01 0.00 62 1017.1
20260510104551 66 152 10.0 15.0 0.00 0.03 0.00 61 1017.4
20260510103041 66 141 10.0 15.0 0.00 0.03 0.00 60 1017.4
20260510101539 66 153 6.0 13.0 0.00 0.03 0.00 61 1017.3
20260510100035 65 135 8.0 12.0 0.00 0.03 0.00 61 1017.3
20260510094534 65 108 6.0 11.0 0.00 0.20 0.00 60 1017.1
20260510093035 65 94 7.0 10.0 0.00 0.20 0.00 60 1017.3
20260510091549 65 97 7.0 10.0 0.00 0.20 0.00 59 1017.3
20260510090029 65 87 6.0 10.0 0.00 0.20 0.00 60 1017.3
20260510084529 65 95 5.0 9.0 0.00 0.31 0.00 59 1017.4
20260510083027 65 96 4.0 6.0 0.00 0.31 0.00 59 1017.3
20260510081536 65 104 5.0 7.0 0.00 0.31 0.00 60 1017.4
20260510080024 64 93 5.0 8.0 0.00 0.31 0.00 60 1017.6
20260510074522 65 70 2.0 5.0 0.00 0.35 0.00 62 1017.5
20260510073027 64 45 2.0 4.0 0.00 0.35 0.00 62 1017.7
20260510071518 63 33 0.0 3.0 0.00 0.35 0.00 65 1017.6
20260510070016 62 39 2.0 6.0 0.00 0.35 0.00 65 1017.4
20260510064536 61 42 1.0 4.0 0.00 0.41 0.00 66 1017.4
20260510063014 60 350 2.0 4.0 0.00 0.41 0.00 66 1017.2
20260510061506 59 345 3.0 4.0 0.00 0.41 0.00 66 1017.2
20260510060039 58 323 0.0 0.0 0.00 0.41 0.00 67 1017.1
20260510054533 58 322 0.0 0.0 0.00 0.49 0.00 67 1017.0
20260510053030 58 322 1.0 3.0 0.00 0.49 0.00 67 1016.9
20260510051528 58 323 0.0 1.0 0.00 0.49 0.00 67 1016.8
20260510050027 58 322 0.0 2.0 0.00 0.49 0.00 67 1016.7
20260510044532 58 323 0.0 0.0 0.00 0.49 0.00 66 1016.7
20260510043024 58 322 1.0 4.0 0.00 0.49 0.00 66 1016.6
20260510041523 58 323 3.0 4.0 0.00 0.49 0.00 66 1016.4
20260510040023 58 323 2.0 5.0 0.00 0.49 0.00 66 1016.4
20260510034523 58 359 2.0 4.0 0.00 0.49 0.00 65 1016.5
20260510033056 58 326 3.0 4.0 0.00 0.49 0.00 65 1016.6
20260510031604 59 303 2.0 3.0 0.00 0.49 0.00 65 1016.4
20260510030057 59 303 0.0 1.0 0.00 0.49 0.00 65 1016.4
20260510024551 59 303 1.0 3.0 0.00 0.49 0.00 65 1016.4
20260510023049 59 303 2.0 4.0 0.00 0.49 0.00 65 1016.4
20260510021548 59 303 1.0 3.0 0.00 0.49 0.00 65 1016.3
20260510020044 59 303 2.0 3.0 0.00 0.49 0.00 66 1016.2
20260510014543 59 304 3.0 4.0 0.00 0.49 0.00 66 1016.2
20260510013050 59 304 2.0 3.0 0.00 0.49 0.00 65 1016.2
20260510011545 58 333 2.0 3.0 0.00 0.49 0.00 65 1016.2
20260510010041 58 334 1.0 4.0 0.00 0.49 0.00 65 1016.3
20260510004535 59 327 3.0 4.0 0.00 0.49 0.00 65 1016.4
20260510003044 59 328 1.0 3.0 0.00 0.49 0.00 65 1016.4
20260510001532 59 328 3.0 4.0 0.00 0.49 0.00 65 1016.7
20260510000030 60 316 2.0 4.0 0.00 0.49 0.00 64 1016.8
20260509234536 60 310 1.0 3.0 0.00 0.49 0.49 64 1016.8
20260509233038 61 310 3.0 5.0 0.00 0.49 0.49 64 1016.8
20260509231528 61 305 3.0 4.0 0.00 0.49 0.49 63 1016.9
20260509230025 62 304 3.0 4.0 0.00 0.49 0.49 63 1017.0
20260509224525 63 213 1.0 4.0 0.00 0.49 0.49 63 1017.0
20260509223023 63 216 2.0 6.0 0.00 0.49 0.49 63 1017.0
20260509221521 63 201 3.0 6.0 0.00 0.49 0.49 62 1017.2
20260509220025 64 234 3.0 6.0 0.00 0.49 0.49 62 1017.2
20260509214517 64 231 3.0 8.0 0.00 0.49 0.49 62 1017.1
20260509213017 64 193 2.0 4.0 0.00 0.49 0.49 61 1017.1
20260509211517 64 206 1.0 3.0 0.00 0.49 0.49 61 1017.1
20260509210015 64 210 2.0 5.0 0.00 0.49 0.49 60 1017.0
20260509204511 64 187 2.0 8.0 0.00 0.49 0.49 59 1016.6
20260509203010 64 187 4.0 8.0 0.00 0.49 0.49 59 1016.7
20260509201512 64 226 2.0 8.0 0.00 0.49 0.49 59 1016.5
20260509200007 64 231 3.0 8.0 0.00 0.49 0.49 59 1016.2